Tracking 35237 objects as of 6-Sep-2026
HD Live streaming from Space Station
objects crossing your sky now

STARLINK-36096

Track STARLINK-36096 now!
10-day predictions
STARLINK-36096 is classified as:


NORAD ID: 66949
Int'l Code: 2025-286AA
Launch date: December 7, 2025
Source: United States (US)
Launch site: AIR FORCE WESTERN TEST RANGE (AFWTR)
Your satellite tracking list
Your tracking list is empty




NASA's NSSDC Master Catalog

Two Line Element Set (TLE):
1 66949U 25286AA  26248.26918441  .00016407  00000-0  49561-3 0  9990
2 66949  53.1578 240.6023 0001435  92.9460 267.1707 15.34403291 42968
Source of the keplerian elements: AFSPC